Location: Cutler
(25.6150°N, 80.3110°W)
Time: 22:12:17
(UTC-05:00)

Envisat - Visible Passes

Search period start: 21 February 2018 00:00
Search period end: 03 March 2018 00:00
Orbit: 764 x 766 km, 98.2° (Epoch: 21 February)

Date Brightness Start Highest point End Pass type
(mag) Time Alt. Az. Time Alt. Az. Time Alt. Az.
21 Feb 4.6 18:53:13 10° E 18:55:53 14° ENE 18:58:32 10° NE visible
21 Feb 4.0 20:30:41 16° SSW 20:34:27 44° W 20:39:17 10° NNW visible
22 Feb 2.8 19:53:13 13° SSE 19:57:45 70° ENE 20:02:48 10° N visible
23 Feb 3.8 19:16:59 10° SE 19:21:14 27° ENE 19:25:27 10° NNE visible
23 Feb 5.1 20:56:09 10° SSW 21:00:06 23° W 21:04:03 10° NW visible
24 Feb 4.8 18:43:47 10° E 18:44:52 11° ENE 18:45:57 10° NE visible
24 Feb 3.4 20:18:38 12° S 20:23:18 59° W 20:28:19 10° NNW visible
25 Feb 3.0 19:41:45 10° SSE 19:46:40 53° ENE 19:51:35 10° N visible
25 Feb 5.9 21:24:20 10° WSW 21:25:49 11° W 21:27:19 10° WNW visible
26 Feb 4.2 19:06:27 10° ESE 19:10:10 21° ENE 19:13:55 10° NNE visible
26 Feb 4.7 20:44:31 10° SSW 20:48:55 30° W 20:53:21 10° NW visible
27 Feb 3.0 20:07:07 10° S 20:12:11 79° WSW 20:17:15 10° NNW visible
28 Feb 3.4 19:30:53 10° SE 19:35:34 40° ENE 19:40:17 10° N visible
28 Feb 5.6 21:11:42 10° SW 21:14:37 15° W 21:17:33 10° WNW visible
01 Mar 4.5 18:56:07 10° ESE 18:59:08 16° ENE 19:02:11 10° NNE visible
01 Mar 4.2 20:33:02 10° SSW 20:37:45 40° W 20:42:30 10° NNW visible
02 Mar 2.8 19:56:00 10° SSE 20:01:03 79° ENE 20:06:08 10° N visible
